When you browse on this site, cookies collect data to enhance your experience and personalize the content and advertising you see.
Visit our Privacy Policy to learn more. By continuing to use the site, you agree to this use of cookies and data.
  • en France
  • Liste des pays
  • À 7 jours
  • Température de l'eau
  • Carte satellitaire
  • Carte météo
  • Widgets météo
  • user-avatar
    Se connecter

    Météo par heure à Amar

    Ce jour, 16 Février, Samedi

    Heure Température Précipitation Vent Pression Humidité
    00:00 +22°C° 0.1 mm 6 m/s 758 mmHg 66%
    01:00 +22°C° 0 mm 6 m/s 758 mmHg 66%
    02:00 +22°C° 0 mm 6 m/s 758 mmHg 66%
    03:00 +22°C° 0 mm 6 m/s 757 mmHg 66%
    04:00 +22°C° 0 mm 6 m/s 758 mmHg 67%
    05:00 +22°C° 0 mm 6 m/s 758 mmHg 67%
    06:00 +22°C° 0 mm 5 m/s 758 mmHg 67%
    07:00 +22°C° 0 mm 5 m/s 758 mmHg 64%
    08:00 +23°C° 0 mm 5 m/s 758 mmHg 61%
    09:00 +23°C° 0 mm 5 m/s 759 mmHg 58%
    10:00 +25°C° 0 mm 5 m/s 758 mmHg 52%
    11:00 +26°C° 0 mm 4 m/s 758 mmHg 45%
    12:00 +27°C° 0 mm 4 m/s 758 mmHg 38%
    13:00 +28°C° 0 mm 3 m/s 758 mmHg 35%
    14:00 +28°C° 0 mm 2 m/s 758 mmHg 31%
    15:00 +29°C° 0 mm 1 m/s 757 mmHg 28%
    16:00 +27°C° 0 mm 4 m/s 758 mmHg 41%
    17:00 +24°C° 0 mm 6 m/s 758 mmHg 55%
    18:00 +22°C° 0 mm 9 m/s 758 mmHg 68%
    19:00 +21°C° 0 mm 9 m/s 759 mmHg 71%
    20:00 +21°C° 0 mm 10 m/s 760 mmHg 74%
    21:00 +19°C° 0 mm 10 m/s 760 mmHg 77%
    22:00 +19°C° 0 mm 10 m/s 760 mmHg 73%
    23:00 +19°C° 0 mm 10 m/s 761 mmHg 69%

    Demain, 17 Février, Dimanche

    Heure Température Précipitation Vent Pression Humidité
    00:00 +19°C° 0 mm 10 m/s 761 mmHg 65%
    01:00 +19°C° 0 mm 10 m/s 761 mmHg 62%
    02:00 +19°C° 0 mm 10 m/s 760 mmHg 58%
    03:00 +19°C° 0 mm 10 m/s 760 mmHg 54%
    04:00 +18°C° 0 mm 10 m/s 761 mmHg 55%
    05:00 +18°C° 0 mm 10 m/s 761 mmHg 56%
    06:00 +18°C° 0 mm 10 m/s 761 mmHg 57%
    07:00 +19°C° 0 mm 9 m/s 761 mmHg 54%
    08:00 +19°C° 0 mm 9 m/s 762 mmHg 52%
    09:00 +19°C° 0 mm 9 m/s 762 mmHg 49%
    10:00 +21°C° 0 mm 9 m/s 762 mmHg 46%
    11:00 +21°C° 0 mm 9 m/s 762 mmHg 43%
    12:00 +22°C° 0 mm 8 m/s 762 mmHg 40%
    13:00 +21°C° 0 mm 8 m/s 761 mmHg 40%
    14:00 +21°C° 0 mm 8 m/s 760 mmHg 39%
    15:00 +21°C° 0 mm 9 m/s 760 mmHg 38%
    16:00 +19°C° 0 mm 9 m/s 760 mmHg 40%
    17:00 +19°C° 0 mm 9 m/s 760 mmHg 42%
    18:00 +18°C° 0 mm 9 m/s 760 mmHg 43%
    19:00 +18°C° 0 mm 9 m/s 761 mmHg 45%
    20:00 +18°C° 0 mm 9 m/s 761 mmHg 46%
    21:00 +18°C° 0 mm 9 m/s 761 mmHg 48%
    22:00 +18°C° 0 mm 9 m/s 761 mmHg 47%
    23:00 +18°C° 0 mm 9 m/s 761 mmHg 46%

    Après-demain, 18 Février, Lundi

    Heure Température Précipitation Vent Pression Humidité
    00:00 +18°C° 0 mm 9 m/s 761 mmHg 45%
    01:00 +18°C° 0 mm 9 m/s 760 mmHg 44%
    02:00 +18°C° 0 mm 9 m/s 760 mmHg 43%
    03:00 +18°C° 0 mm 8 m/s 760 mmHg 43%
    04:00 +18°C° 0 mm 8 m/s 760 mmHg 43%
    05:00 +18°C° 0 mm 8 m/s 760 mmHg 44%
    06:00 +18°C° 0 mm 8 m/s 760 mmHg 44%
    07:00 +20°C° 0 mm 8 m/s 760 mmHg 42%
    08:00 +20°C° 0 mm 7 m/s 760 mmHg 40%
    09:00 +21°C° 0 mm 7 m/s 761 mmHg 37%
    10:00 +21°C° 0 mm 7 m/s 760 mmHg 36%
    11:00 +22°C° 0 mm 7 m/s 760 mmHg 34%
    12:00 +22°C° 0 mm 7 m/s 759 mmHg 32%
    13:00 +22°C° 0 mm 7 m/s 758 mmHg 33%
    14:00 +22°C° 0 mm 7 m/s 758 mmHg 33%
    15:00 +22°C° 0 mm 7 m/s 757 mmHg 33%
    16:00 +21°C° 0 mm 6 m/s 757 mmHg 36%
    17:00 +21°C° 0 mm 6 m/s 757 mmHg 40%
    18:00 +20°C° 0 mm 5 m/s 757 mmHg 43%
    19:00 +20°C° 0 mm 5 m/s 757 mmHg 44%
    20:00 +20°C° 0 mm 5 m/s 758 mmHg 45%
    21:00 +19°C° 0 mm 5 m/s 758 mmHg 46%
    22:00 +19°C° 0 mm 5 m/s 758 mmHg 46%
    23:00 +19°C° 0 mm 4 m/s 757 mmHg 46%

    19 Février, Mardi

    Heure Température Précipitation Vent Pression Humidité
    00:00 +19°C° 0 mm 4 m/s 757 mmHg 47%
    01:00 +18°C° 0 mm 3 m/s 756 mmHg 48%
    02:00 +18°C° 0 mm 3 m/s 756 mmHg 49%
    03:00 +18°C° 0 mm 3 m/s 755 mmHg 50%
    04:00 +18°C° 0 mm 3 m/s 755 mmHg 50%
    05:00 +18°C° 0 mm 2 m/s 756 mmHg 51%
    06:00 +17°C° 0 mm 2 m/s 756 mmHg 52%
    07:00 +18°C° 0 mm 2 m/s 756 mmHg 49%
    08:00 +19°C° 0 mm 2 m/s 756 mmHg 46%
    09:00 +21°C° 0 mm 1 m/s 757 mmHg 43%
    10:00 +21°C° 0 mm 1 m/s 756 mmHg 42%
    11:00 +21°C° 0 mm 2 m/s 756 mmHg 40%
    12:00 +21°C° 0 mm 2 m/s 756 mmHg 38%
    13:00 +23°C° 0 mm 1 m/s 755 mmHg 37%
    14:00 +23°C° 0 mm 1 m/s 755 mmHg 36%
    15:00 +24°C° 0 mm 1 m/s 754 mmHg 35%
    16:00 +22°C° 0 mm 4 m/s 755 mmHg 42%
    17:00 +21°C° 0 mm 7 m/s 755 mmHg 50%
    18:00 +19°C° 0 mm 10 m/s 756 mmHg 57%
    19:00 +19°C° 0 mm 10 m/s 757 mmHg 56%
    20:00 +18°C° 0 mm 10 m/s 758 mmHg 55%
    21:00 +18°C° 0 mm 10 m/s 758 mmHg 54%
    22:00 +18°C° 0 mm 10 m/s 759 mmHg 52%
    23:00 +18°C° 0 mm 10 m/s 759 mmHg 50%

    20 Février, Mercredi

    Heure Température Précipitation Vent Pression Humidité
    00:00 +18°C° 0 mm 10 m/s 759 mmHg 48%
    01:00 +18°C° 0 mm 10 m/s 759 mmHg 49%
    02:00 +18°C° 0 mm 10 m/s 759 mmHg 49%
    03:00 +17°C° 0 mm 11 m/s 759 mmHg 50%
    04:00 +17°C° 0 mm 11 m/s 759 mmHg 50%
    05:00 +17°C° 0 mm 11 m/s 759 mmHg 50%
    06:00 +17°C° 0 mm 11 m/s 760 mmHg 50%
    07:00 +17°C° 0 mm 10 m/s 760 mmHg 48%
    08:00 +18°C° 0 mm 10 m/s 761 mmHg 45%
    09:00 +18°C° 0 mm 10 m/s 762 mmHg 43%
    10:00 +19°C° 0 mm 10 m/s 761 mmHg 40%
    11:00 +19°C° 0 mm 10 m/s 761 mmHg 38%
    12:00 +21°C° 0 mm 9 m/s 761 mmHg 35%
    13:00 +21°C° 0 mm 9 m/s 761 mmHg 36%
    14:00 +21°C° 0 mm 9 m/s 760 mmHg 36%
    15:00 +21°C° 0 mm 9 m/s 760 mmHg 36%
    16:00 +19°C° 0 mm 9 m/s 760 mmHg 39%
    17:00 +20°C° 0 mm 8 m/s 761 mmHg 41%
    18:00 +18°C° 0 mm 8 m/s 761 mmHg 43%
    19:00 +18°C° 0 mm 7 m/s 761 mmHg 44%
    20:00 +18°C° 0 mm 7 m/s 762 mmHg 45%
    21:00 +19°C° 0 mm 6 m/s 762 mmHg 46%
    22:00 +19°C° 0 mm 6 m/s 762 mmHg 45%
    23:00 +19°C° 0 mm 6 m/s 762 mmHg 45%

    21 Février, Jeudi

    Heure Température Précipitation Vent Pression Humidité
    00:00 +17°C° 0 mm 6 m/s 762 mmHg 44%
    01:00 +17°C° 0 mm 6 m/s 761 mmHg 44%
    02:00 +17°C° 0 mm 7 m/s 761 mmHg 43%
    03:00 +17°C° 0 mm 7 m/s 761 mmHg 42%
    04:00 +17°C° 0 mm 7 m/s 761 mmHg 42%
    05:00 +17°C° 0 mm 7 m/s 761 mmHg 42%
    06:00 +17°C° 0 mm 7 m/s 762 mmHg 41%
    07:00 +17°C° 0 mm 7 m/s 762 mmHg 39%
    08:00 +18°C° 0 mm 7 m/s 763 mmHg 37%
    09:00 +18°C° 0 mm 7 m/s 763 mmHg 35%
    10:00 +20°C° 0 mm 6 m/s 763 mmHg 33%
    11:00 +20°C° 0 mm 6 m/s 762 mmHg 30%
    12:00 +21°C° 0 mm 6 m/s 762 mmHg 28%
    13:00 +21°C° 0 mm 6 m/s 761 mmHg 27%
    14:00 +21°C° 0 mm 5 m/s 761 mmHg 27%
    15:00 +22°C° 0 mm 5 m/s 761 mmHg 26%
    16:00 +21°C° 0 mm 5 m/s 761 mmHg 32%
    17:00 +20°C° 0 mm 5 m/s 761 mmHg 37%
    18:00 +20°C° 0 mm 5 m/s 762 mmHg 43%
    19:00 +20°C° 0 mm 5 m/s 762 mmHg 44%
    20:00 +19°C° 0 mm 5 m/s 762 mmHg 45%
    21:00 +19°C° 0 mm 4 m/s 762 mmHg 47%
    22:00 +19°C° 0 mm 4 m/s 762 mmHg 46%
    23:00 +19°C° 0 mm 4 m/s 762 mmHg 45%
    Voir plus